Location: La Pernelle
(49.6188°N, 1.2999°W)
Time: 03:58:46
(UTC+00:00)

NOSS 3-2 (A) - Pass Details

Date: 17 October 2021
Orbit: 771 x 1437 km, 63.4° (Epoch: 21 November)

Event Time Altitude Azimuth Distance (km) Brightness Sun altitude
Rises 19:39:06 0° 301° (WNW) 3,655 7.7 -24.7°
Reaches altitude 10° 19:41:58 10° 314° (NW) 2,809 6.7 -25.2°
Maximum altitude 19:47:36 28° 11° (N) 1,993 5.1 -26.0°
Enters shadow 19:50:13 23° 42° (NE) 2,286 5.2 -26.4°
